This demonstration page uses our WeatherBlox Daily Observations layout. Learn more.

Left ArrowRight Arrow

33.98154, -81.23621

Hourly Observations for August 15, 2022

Temp ( °F °C ) Dew Point ( °F °C ) Humidity (%) Winds ( mph kmh ) Pressure ( in mb ) Visibility ( mi km ) Precip ( " mm )
12:56 am 00:56 Partly Cloudy 74 23.3 66 18.9 76 76 Calm 29.95 1014 10 16 0.00 0.00
1:56 am 01:56 Partly Cloudy 73 22.8 66 18.9 79 79 Calm 29.94 1014 10 16 0.00 0.00
2:56 am 02:56 Mostly Clear 73 22.8 65 18.3 76 76 Calm 29.93 1014 10 16 0.00 0.00
3:56 am 03:56 Clear 71 21.7 65 18.3 81 81 Calm 29.92 1013 10 16 0.00 0.00
4:56 am 04:56 Mostly Cloudy 71 21.7 64 17.8 79 79 Calm 29.91 1013 10 16 0.00 0.00
5:56 am 05:56 Partly Cloudy 71 21.7 64 17.8 79 79 WSW 5 7 29.91 1013 10 16 0.00 0.00
6:56 am 06:56 Sunny 71 21.7 64 17.8 79 79 SW 3 6 29.90 1013 10 16 0.00 0.00
7:56 am 07:56 Sunny 73 22.8 64 17.8 73 73 SW 8 13 29.91 1013 10 16 0.00 0.00
8:56 am 08:56 Mostly Sunny 77 25 65 18.3 66 66 SW 8 13 29.91 1013 10 16 0.00 0.00
9:56 am 09:56 Mostly Cloudy 81 27.2 67 19.4 62 62 SW 8 13 29.91 1013 10 16 0.00 0.00
10:56 am 10:56 Partly Cloudy 84 28.9 68 20 59 59 WSW 12 19 29.91 1013 10 16 0.00 0.00
11:56 am 11:56 Mostly Cloudy 84 28.9 68 20 59 59 SW 10 17 29.91 1013 10 16 0.00 0.00
12:56 pm 12:56 Mostly Cloudy 87 30.6 69 20.6 55 55 SW 8 13 29.89 1012 10 16 0.00 0.00
1:56 pm 13:56 Mostly Cloudy 88 31.1 69 20.6 54 54 W 14 22 29.87 1012 10 16 0.00 0.00
2:56 pm 14:56 Mostly Cloudy 89 31.7 69 20.6 52 52 WSW 9 15 29.85 1011 10 16 0.00 0.00
3:56 pm 15:56 Mostly Cloudy 91 32.8 69 20.6 49 49 WSW 16 26 29.82 1010 10 16 0.00 0.00
4:56 pm 16:56 Mostly Cloudy 89 31.7 69 20.6 52 52 SSW 12 19 29.80 1009 10 16 0.00 0.00
5:56 pm 17:56 Partly Cloudy 89 31.7 68 20 50 50 WSW 15 24 29.79 1009 10 16 0.00 0.00
6:56 pm 18:56 Partly Cloudy 87 30.6 68 20 53 53 SSW 10 17 29.79 1009 10 16 0.00 0.00
7:56 pm 19:56 Mostly Cloudy 86 30 68 20 55 55 SW 9 15 29.79 1009 10 16 0.00 0.00
8:56 pm 20:56 Mostly Cloudy 84 28.9 69 20.6 61 61 W 12 19 29.81 1010 10 16 0.00 0.00
9:56 pm 21:56 Mostly Cloudy 83 28.3 67 19.4 59 59 NW 7 11 29.84 1011 10 16 0.00 0.00
10:56 pm 22:56 Cloudy with Light Rain 81 27.2 68 20 65 65 NNE 8 13 29.85 1011 10 16 0.01 0.13
11:37 pm 23:37 Cloudy with Heavy Rain 74 23.3 71 21.7 91 91 VRB 3 6 29.85 1011 2 3 0.10 2.54
11:46 pm 23:46 Cloudy with Heavy Rain 73 22.8 72 22.2 96 96 VRB 5 7 29.87 1012 5 8 0.22 5.59
11:56 pm 23:56 Cloudy with Mist and Fog 74 23.3 72 22.2 94 94 S 6 9 29.86 1011 5 8 0.27 6.86

Powered by AerisWeather